UAL412 KDEN-KTEX

Flight info

Callsign UAL412
Flight time N/A
Altitude 30000
Route BAYLR6 TEHRU HERRM/N0461F290 ETL
Aircraft A320/M-SDE3FGHIRWY/LB1

Departure

Time 2026-05-05 23:43
Airport Denver International Airport (KDEN)

Arrival

Time N/A
Airport Telluride Regional Airport (KTEX)
Time Latitude Longitude Altitude Speed Heading
2026-05-05 23:22 39.85935 -104.67249 5380 ft 0 kts 180°
2026-05-05 23:32 39.85942 -104.67249 5380 ft 4 kts 180°
2026-05-05 23:32 39.85969 -104.67249 5375 ft 4 kts 180°
2026-05-05 23:32 39.85996 -104.67250 5377 ft 4 kts 180°
2026-05-05 23:32 39.86003 -104.67250 5380 ft 2 kts 180°
2026-05-05 23:36 39.86001 -104.67252 5389 ft 1 kts 204°
2026-05-05 23:37 39.86006 -104.67270 5376 ft 7 kts 299°
2026-05-05 23:37 39.86061 -104.67433 5377 ft 26 kts 277°
2026-05-05 23:37 39.86066 -104.67656 5376 ft 23 kts 271°
2026-05-05 23:37 39.86069 -104.67850 5378 ft 20 kts 271°
2026-05-05 23:38 39.86071 -104.68014 5379 ft 18 kts 269°
2026-05-05 23:38 39.86041 -104.68177 5378 ft 21 kts 246°
2026-05-05 23:38 39.86011 -104.68376 5371 ft 22 kts 230°
2026-05-05 23:38 39.85892 -104.68393 5371 ft 17 kts 181°
2026-05-05 23:39 39.85768 -104.68398 5371 ft 18 kts 182°
2026-05-05 23:39 39.85640 -104.68401 5372 ft 18 kts 180°
2026-05-05 23:39 39.85511 -104.68401 5377 ft 22 kts 180°
2026-05-05 23:39 39.85333 -104.68403 5379 ft 28 kts 180°
2026-05-05 23:40 39.85203 -104.68446 5379 ft 9 kts 247°
2026-05-05 23:40 39.85204 -104.68564 5376 ft 25 kts 270°
2026-05-05 23:40 39.85201 -104.68815 5363 ft 27 kts 268°
2026-05-05 23:40 39.85198 -104.69072 5351 ft 27 kts 269°
2026-05-05 23:41 39.85200 -104.69328 5342 ft 30 kts 271°
2026-05-05 23:41 39.85210 -104.69585 5336 ft 22 kts 278°
2026-05-05 23:41 39.85257 -104.69657 5340 ft 7 kts 352°
2026-05-05 23:41 39.85270 -104.69658 5336 ft 2 kts 358°
2026-05-05 23:42 39.85433 -104.69651 5336 ft 54 kts
2026-05-05 23:42 39.86018 -104.69637 5338 ft 112 kts 359°
2026-05-05 23:42 39.86970 -104.69639 5337 ft 159 kts 357°
2026-05-05 23:42 39.88151 -104.69683 5714 ft 176 kts
2026-05-05 23:43 39.89373 -104.69857 6537 ft 181 kts 338°
2026-05-05 23:43 39.90240 -104.71050 7160 ft 192 kts 289°
2026-05-05 23:43 39.90203 -104.72824 7421 ft 210 kts 243°
2026-05-05 23:43 39.89326 -104.74445 7595 ft 231 kts 226°
2026-05-05 23:44 39.88139 -104.75980 7851 ft 251 kts 221°
2026-05-05 23:44 39.86826 -104.77580 8352 ft 263 kts 221°
2026-05-05 23:44 39.85510 -104.79231 9142 ft 263 kts 223°
2026-05-05 23:44 39.84214 -104.80936 9820 ft 271 kts 224°
2026-05-05 23:45 39.82872 -104.82760 9965 ft 286 kts 224°
2026-05-05 23:45 39.81441 -104.84753 9971 ft 316 kts 226°
2026-05-05 23:45 39.79903 -104.86937 9971 ft 334 kts 226°
2026-05-05 23:45 39.78338 -104.89206 9970 ft 339 kts 229°
2026-05-05 23:46 39.77159 -104.91872 10086 ft 347 kts 248°
2026-05-05 23:46 39.76377 -104.94837 10915 ft 345 kts 252°
2026-05-05 23:46 39.75716 -104.97831 11710 ft 345 kts 254°
2026-05-05 23:46 39.75106 -105.00842 12512 ft 345 kts 255°
2026-05-05 23:47 39.74399 -105.03818 13306 ft 345 kts 249°
2026-05-05 23:47 39.73520 -105.06718 14072 ft 345 kts 248°
2026-05-05 23:47 39.72619 -105.09561 14735 ft 346 kts 247°
2026-05-05 23:47 39.71674 -105.12463 15381 ft 347 kts 247°
2026-05-05 23:48 39.70768 -105.15197 15985 ft 348 kts 247°
2026-05-05 23:48 39.69807 -105.18084 16623 ft 349 kts 248°
2026-05-05 23:48 39.68842 -105.20983 17273 ft 350 kts 248°
2026-05-05 23:48 39.67878 -105.23897 17899 ft 352 kts 248°
2026-05-05 23:49 39.66912 -105.26822 18532 ft 354 kts 248°
2026-05-05 23:49 39.65941 -105.29772 19070 ft 357 kts 249°
2026-05-05 23:49 39.64959 -105.32756 19553 ft 362 kts 248°
2026-05-05 23:49 39.63965 -105.35779 20082 ft 366 kts 248°
2026-05-05 23:50 39.62963 -105.38830 20602 ft 369 kts 248°
2026-05-05 23:50 39.61952 -105.41903 21114 ft 372 kts 248°
2026-05-05 23:50 39.60929 -105.45001 21565 ft 375 kts 248°
2026-05-05 23:50 39.59898 -105.48122 22033 ft 378 kts 248°
2026-05-05 23:51 39.58858 -105.51263 22437 ft 381 kts 248°
2026-05-05 23:51 39.57805 -105.54429 22894 ft 384 kts 248°
2026-05-05 23:51 39.56738 -105.57619 23353 ft 387 kts 248°
2026-05-05 23:51 39.55665 -105.60825 23705 ft 389 kts 248°
2026-05-05 23:52 39.54622 -105.64073 24097 ft 392 kts 250°
2026-05-05 23:52 39.53662 -105.67388 24408 ft 394 kts 251°
2026-05-05 23:52 39.52750 -105.70745 24774 ft 396 kts 252°
2026-05-05 23:52 39.51854 -105.74129 25136 ft 398 kts 252°
2026-05-05 23:53 39.50951 -105.77535 25472 ft 401 kts 252°
2026-05-05 23:53 39.50033 -105.80946 25782 ft 403 kts 252°
2026-05-05 23:53 39.49103 -105.84343 26128 ft 405 kts 252°
2026-05-05 23:53 39.48148 -105.87782 26473 ft 407 kts 251°
2026-05-05 23:54 39.47186 -105.91234 26824 ft 410 kts 251°
2026-05-05 23:54 39.46212 -105.94714 27114 ft 412 kts 251°
2026-05-05 23:54 39.45231 -105.98213 27433 ft 414 kts 251°
2026-05-05 23:54 39.44248 -106.01733 27670 ft 418 kts 251°
2026-05-05 23:55 39.43254 -106.05282 27980 ft 420 kts 251°
2026-05-05 23:55 39.42252 -106.08845 28261 ft 423 kts 251°
2026-05-05 23:55 39.41244 -106.12423 28618 ft 423 kts 251°
2026-05-05 23:55 39.40239 -106.15986 29073 ft 421 kts 251°
2026-05-05 23:56 39.39235 -106.19547 29478 ft 422 kts 251°
2026-05-05 23:56 39.38227 -106.23114 29657 ft 420 kts 251°
2026-05-05 23:56 39.37224 -106.26668 29891 ft 421 kts 251°
2026-05-05 23:56 39.36220 -106.30219 29884 ft 419 kts 251°
2026-05-05 23:57 39.34211 -106.37295 29912 ft 422 kts 251°
2026-05-05 23:57 39.32184 -106.44430 29901 ft 425 kts 251°
2026-05-05 23:58 39.30154 -106.51580 29868 ft 424 kts 250°
2026-05-05 23:58 39.28109 -106.58739 29837 ft 425 kts 251°
2026-05-05 23:59 39.26063 -106.65857 29796 ft 425 kts 252°
2026-05-05 23:59 39.23916 -106.72986 29821 ft 429 kts 246°
2026-05-06 00:00 39.21237 -106.79907 29832 ft 432 kts 247°
2026-05-06 00:00 39.18557 -106.86872 29834 ft 435 kts 247°
2026-05-06 00:01 39.17213 -106.90370 29638 ft 436 kts 245°
2026-05-06 00:01 39.15862 -106.93865 29639 ft 436 kts 246°
2026-05-06 00:01 39.13145 -107.00861 29656 ft 437 kts 246°
2026-05-06 00:02 39.10418 -107.07859 29643 ft 438 kts 248°
2026-05-06 00:02 39.07673 -107.14890 29644 ft 441 kts 246°
2026-05-06 00:03 39.04914 -107.21953 29642 ft 443 kts 247°
2026-05-06 00:03 39.02144 -107.29033 29644 ft 443 kts 248°
2026-05-06 00:04 38.99367 -107.36118 29646 ft 444 kts 246°
2026-05-06 00:04 38.96592 -107.43161 29635 ft 445 kts 246°
2026-05-06 00:05 38.92395 -107.53820 29632 ft 446 kts 246°
2026-05-06 00:06 38.89579 -107.60935 29625 ft 447 kts 245°
2026-05-06 00:06 38.86746 -107.68063 29628 ft 449 kts 246°
2026-05-06 00:07 38.83901 -107.75201 29619 ft 450 kts 245°
2026-05-06 00:07 38.81536 -107.81153 29611 ft 452 kts 246°
2026-05-06 00:07 38.80107 -107.84747 29713 ft 453 kts 246°
2026-05-06 00:08 38.78673 -107.88348 29723 ft 453 kts 246°
2026-05-06 00:08 38.75794 -107.95546 29753 ft 454 kts 245°
2026-05-06 00:09 38.72896 -108.02752 29756 ft 455 kts 244°
2026-05-06 00:09 38.69996 -108.09942 29758 ft 455 kts 245°
2026-05-06 00:10 38.67090 -108.17139 29691 ft 455 kts 245°
2026-05-06 00:10 38.64186 -108.24339 29412 ft 455 kts 245°
2026-05-06 00:10 38.62739 -108.27921 28895 ft 451 kts 244°
2026-05-06 00:11 38.61306 -108.31462 28210 ft 446 kts 245°
2026-05-06 00:11 38.59904 -108.34925 27557 ft 442 kts 245°
2026-05-06 00:11 38.58497 -108.38396 26909 ft 437 kts 246°
2026-05-06 00:11 38.57105 -108.41826 26263 ft 433 kts 244°
2026-05-06 00:12 38.55723 -108.45224 25633 ft 430 kts 243°
2026-05-06 00:12 38.54349 -108.48601 24999 ft 426 kts 243°
2026-05-06 00:12 38.52966 -108.51924 24452 ft 421 kts 239°
2026-05-06 00:12 38.51165 -108.54783 24326 ft 408 kts 224°
2026-05-06 00:13 38.48908 -108.56875 24200 ft 397 kts 209°
2026-05-06 00:13 38.46371 -108.58135 24087 ft 389 kts 194°
2026-05-06 00:13 38.43719 -108.58544 23965 ft 381 kts 181°
2026-05-06 00:13 38.41128 -108.58118 23846 ft 373 kts 167°
2026-05-06 00:14 38.38693 -108.57076 23725 ft 364 kts 163°
2026-05-06 00:14 38.36342 -108.56014 23609 ft 353 kts 163°
2026-05-06 00:14 38.34051 -108.54985 23497 ft 343 kts 161°
2026-05-06 00:14 38.31826 -108.53988 23317 ft 336 kts 163°
2026-05-06 00:15 38.29633 -108.53003 23054 ft 331 kts 165°
2026-05-06 00:15 38.27476 -108.52034 22775 ft 326 kts 164°
2026-05-06 00:15 38.25348 -108.51079 22526 ft 322 kts 163°
2026-05-06 00:15 38.23251 -108.50136 22246 ft 317 kts 165°
2026-05-06 00:16 38.21183 -108.49203 21974 ft 314 kts 164°
2026-05-06 00:16 38.19318 -108.47800 21713 ft 315 kts 135°
2026-05-06 00:16 38.18229 -108.45430 21456 ft 314 kts 104°
2026-05-06 00:16 38.18221 -108.42704 21206 ft 311 kts 71°
2026-05-06 00:17 38.19291 -108.40363 20946 ft 308 kts 38°
2026-05-06 00:17 38.21041 -108.38846 20680 ft 306 kts 27°
2026-05-06 00:17 38.22632 -108.37045 20411 ft 310 kts 57°
2026-05-06 00:17 38.23325 -108.34484 20163 ft 309 kts 87°
2026-05-06 00:18 38.23162 -108.31798 19923 ft 311 kts 105°
2026-05-06 00:18 38.22389 -108.29177 19677 ft 321 kts 121°
2026-05-06 00:18 38.21042 -108.26968 19434 ft 313 kts 148°
2026-05-06 00:18 38.19102 -108.25911 19190 ft 298 kts 180°
2026-05-06 00:19 38.17044 -108.25887 18955 ft 296 kts 187°
2026-05-06 00:19 38.14989 -108.25993 18714 ft 296 kts 187°
2026-05-06 00:19 38.12939 -108.26094 18478 ft 294 kts 187°
2026-05-06 00:19 38.10896 -108.26143 18240 ft 294 kts 180°
2026-05-06 00:20 38.08854 -108.25803 18003 ft 298 kts 169°
2026-05-06 00:20 38.06899 -108.24932 17733 ft 301 kts 158°
2026-05-06 00:20 38.05101 -108.23543 17465 ft 305 kts 147°
2026-05-06 00:20 38.03550 -108.21685 17212 ft 308 kts 132°
2026-05-06 00:21 38.02337 -108.19448 16948 ft 307 kts 119°
2026-05-06 00:21 38.01764 -108.16852 16684 ft 312 kts 89°
2026-05-06 00:21 38.02295 -108.14221 16431 ft 312 kts 56°
2026-05-06 00:21 38.03781 -108.12313 16180 ft 302 kts 24°
2026-05-06 00:22 38.05755 -108.11680 15922 ft 290 kts 350°
2026-05-06 00:22 38.07622 -108.12419 15661 ft 280 kts 324°
2026-05-06 00:22 38.09145 -108.13918 15408 ft 275 kts 310°
2026-05-06 00:22 38.10374 -108.15748 15158 ft 272 kts 305°
2026-05-06 00:23 38.11620 -108.17561 14900 ft 274 kts 311°
2026-05-06 00:23 38.12958 -108.19281 14725 ft 272 kts 308°
2026-05-06 00:23 38.14015 -108.21232 14697 ft 267 kts 292°
2026-05-06 00:23 38.14764 -108.23385 14692 ft 265 kts 289°
2026-05-06 00:24 38.15427 -108.25558 14693 ft 265 kts 288°
2026-05-06 00:24 38.16054 -108.27755 14690 ft 264 kts 287°
2026-05-06 00:24 38.16656 -108.29912 14688 ft 262 kts 286°
2026-05-06 00:24 38.17261 -108.32091 14688 ft 262 kts 287°
2026-05-06 00:25 38.17873 -108.34289 14685 ft 265 kts 287°
2026-05-06 00:25 38.18493 -108.36501 14685 ft 266 kts 287°
2026-05-06 00:25 38.18959 -108.38764 14673 ft 264 kts 274°
2026-05-06 00:25 38.18844 -108.41086 14685 ft 263 kts 256°
2026-05-06 00:26 38.18134 -108.43201 14684 ft 262 kts 238°
2026-05-06 00:26 38.16892 -108.44915 14669 ft 268 kts 219°
2026-05-06 00:26 38.15231 -108.46018 14670 ft 273 kts 199°
2026-05-06 00:26 38.13335 -108.46336 14670 ft 280 kts 180°
2026-05-06 00:27 38.11427 -108.45767 14669 ft 287 kts 159°
2026-05-06 00:27 38.09770 -108.44331 14678 ft 293 kts 136°
2026-05-06 00:27 38.08624 -108.42175 14699 ft 300 kts 116°
2026-05-06 00:27 38.07833 -108.39710 14696 ft 302 kts 113°
2026-05-06 00:28 38.07119 -108.37192 14701 ft 303 kts 111°
2026-05-06 00:28 38.06436 -108.34666 14697 ft 303 kts 111°
2026-05-06 00:28 38.05756 -108.32134 14695 ft 303 kts 111°
2026-05-06 00:28 38.05067 -108.29603 14694 ft 305 kts 112°
2026-05-06 00:29 38.04362 -108.27059 14696 ft 305 kts 111°
2026-05-06 00:29 38.03651 -108.24534 14659 ft 302 kts 111°
2026-05-06 00:29 38.02931 -108.22048 14266 ft 299 kts 112°
2026-05-06 00:29 38.02205 -108.19579 13794 ft 297 kts 112°
2026-05-06 00:30 38.01470 -108.17105 13060 ft 303 kts 113°
2026-05-06 00:30 38.00731 -108.14611 12563 ft 300 kts 113°
2026-05-06 00:30 38.00014 -108.12185 12329 ft 288 kts 114°
2026-05-06 00:30 37.99394 -108.09846 12194 ft 273 kts 107°
2026-05-06 00:31 37.98912 -108.07561 11887 ft 262 kts 107°
2026-05-06 00:31 37.98449 -108.05364 11324 ft 254 kts 108°
2026-05-06 00:31 37.98007 -108.03262 10899 ft 236 kts 106°
2026-05-06 00:31 37.97603 -108.01344 10597 ft 217 kts 108°
2026-05-06 00:32 37.97235 -107.99587 10260 ft 196 kts 109°
2026-05-06 00:32 37.96898 -107.97984 9964 ft 185 kts 109°
2026-05-06 00:32 37.96553 -107.96397 9902 ft 185 kts 107°
2026-05-06 00:32 37.96209 -107.94858 9566 ft 180 kts 105°
2026-05-06 00:33 37.95906 -107.93348 9306 ft 178 kts 105°
2026-05-06 00:33 37.95592 -107.91862 9092 ft 174 kts 106°
2026-05-06 00:33 37.95300 -107.90511 9045 ft 145 kts 104°
2026-05-06 00:33 37.95043 -107.89239 9465 ft 152 kts 104°
2026-05-06 00:34 37.94918 -107.87834 9896 ft 171 kts 87°
2026-05-06 00:34 37.94807 -107.86219 10332 ft 197 kts 102°
2026-05-06 00:34 37.94448 -107.84475 10842 ft 213 kts 106°
2026-05-06 00:34 37.94044 -107.82558 11169 ft 238 kts 107°
2026-05-06 00:35 37.93625 -107.80467 11389 ft 256 kts 104°
2026-05-06 00:35 37.93542 -107.78175 12100 ft 267 kts 77°
2026-05-06 00:35 37.94290 -107.76015 12951 ft 271 kts 50°
2026-05-06 00:35 37.95510 -107.74192 13967 ft 272 kts 46°
2026-05-06 00:36 37.96739 -107.72332 14698 ft 277 kts 47°
2026-05-06 00:36 37.97976 -107.70430 15568 ft 280 kts 47°
2026-05-06 00:36 37.99225 -107.68501 16362 ft 286 kts 49°
2026-05-06 00:36 38.00489 -107.66547 17158 ft 288 kts 47°
2026-05-06 00:37 38.01770 -107.64570 17768 ft 292 kts 49°
2026-05-06 00:37 38.03062 -107.62572 18422 ft 294 kts 48°
2026-05-06 00:37 38.04367 -107.60557 18957 ft 297 kts 48°
2026-05-06 00:37 38.05682 -107.58529 19511 ft 298 kts 49°
2026-05-06 00:38 38.07007 -107.56483 20059 ft 301 kts 48°
2026-05-06 00:38 38.08339 -107.54423 20631 ft 303 kts 48°
2026-05-06 00:38 38.09679 -107.52338 21178 ft 306 kts 49°
2026-05-06 00:38 38.11030 -107.50241 21718 ft 308 kts 48°
2026-05-06 00:39 38.12385 -107.48116 22224 ft 310 kts 49°
2026-05-06 00:39 38.13761 -107.45992 22714 ft 315 kts 47°
2026-05-06 00:39 38.15204 -107.43847 22836 ft 331 kts 47°
2026-05-06 00:39 38.16751 -107.41594 22982 ft 345 kts 46°
2026-05-06 00:40 38.18366 -107.39255 23102 ft 359 kts 46°
2026-05-06 00:40 38.20044 -107.36820 23241 ft 373 kts 47°
2026-05-06 00:40 38.21788 -107.34277 23373 ft 388 kts 46°
2026-05-06 00:40 38.23589 -107.31639 23484 ft 402 kts 46°
2026-05-06 00:41 38.25450 -107.28902 23610 ft 416 kts 47°
2026-05-06 00:41 38.27372 -107.26068 23727 ft 429 kts 47°
2026-05-06 00:41 38.29347 -107.23151 23858 ft 441 kts 47°
2026-05-06 00:41 38.31366 -107.20166 24139 ft 447 kts 47°
2026-05-06 00:42 38.33405 -107.17150 24480 ft 451 kts 47°
2026-05-06 00:42 38.35458 -107.14116 24884 ft 454 kts 47°
2026-05-06 00:42 38.37524 -107.11067 25280 ft 456 kts 47°
2026-05-06 00:42 38.39603 -107.07996 25669 ft 458 kts 47°
2026-05-06 00:43 38.41685 -107.04912 26052 ft 460 kts 47°
2026-05-06 00:43 38.43782 -107.01798 26380 ft 464 kts 48°
2026-05-06 00:43 38.45893 -106.98662 26726 ft 467 kts 47°
2026-05-06 00:43 38.48018 -106.95506 27080 ft 470 kts 47°
2026-05-06 00:44 38.50155 -106.92333 27425 ft 473 kts 47°
2026-05-06 00:44 38.52303 -106.89142 27765 ft 475 kts 47°
2026-05-06 00:44 38.54460 -106.85927 27963 ft 478 kts 47°
2026-05-06 00:44 38.56625 -106.82695 28296 ft 480 kts 47°
2026-05-06 00:45 38.58801 -106.79441 28628 ft 481 kts 47°
2026-05-06 00:45 38.63079 -106.73025 28721 ft 468 kts 48°
2026-05-06 00:46 38.67312 -106.66684 28714 ft 472 kts 47°
2026-05-06 00:46 38.71587 -106.60277 28705 ft 474 kts 46°
2026-05-06 00:47 38.75877 -106.53830 28722 ft 475 kts 47°
2026-05-06 00:47 38.80137 -106.47408 28747 ft 476 kts 47°
2026-05-06 00:48 38.84426 -106.40931 28778 ft 476 kts 48°
2026-05-06 00:48 38.88692 -106.34459 28808 ft 469 kts 47°
2026-05-06 00:49 38.92887 -106.28088 28804 ft 467 kts 47°
2026-05-06 00:49 38.96400 -106.22760 28795 ft 467 kts 47°
2026-05-06 00:50 39.01263 -106.15307 28790 ft 467 kts 47°
2026-05-06 00:50 39.03357 -106.12107 28621 ft 467 kts 47°
2026-05-06 00:50 39.05453 -106.08913 28334 ft 467 kts 47°
2026-05-06 00:50 39.07558 -106.05709 28117 ft 468 kts 47°
2026-05-06 00:51 39.09666 -106.02502 27835 ft 469 kts 47°
2026-05-06 00:51 39.11062 -106.00375 27645 ft 469 kts 47°
2026-05-06 00:51 39.13159 -105.97176 26969 ft 467 kts 47°
2026-05-06 00:51 39.15246 -105.93981 26259 ft 464 kts 47°
2026-05-06 00:52 39.17317 -105.90796 25527 ft 463 kts 47°
2026-05-06 00:52 39.19380 -105.87620 24835 ft 461 kts 47°
2026-05-06 00:52 39.21436 -105.84454 24143 ft 460 kts 47°
2026-05-06 00:52 39.23490 -105.81289 23452 ft 460 kts 47°
2026-05-06 00:53 39.25542 -105.78127 22740 ft 458 kts 47°
2026-05-06 00:53 39.27578 -105.74989 22109 ft 454 kts 47°
2026-05-06 00:53 39.29571 -105.71910 21941 ft 439 kts 47°
2026-05-06 00:53 39.31491 -105.68918 21808 ft 428 kts 50°
2026-05-06 00:54 39.33086 -105.65716 21691 ft 419 kts 64°
2026-05-06 00:54 39.34335 -105.62345 21326 ft 416 kts 66°
2026-05-06 00:54 39.35572 -105.58962 20846 ft 416 kts 66°
2026-05-06 00:54 39.36804 -105.55581 20376 ft 415 kts 66°
2026-05-06 00:55 39.38028 -105.52213 19933 ft 413 kts 66°
2026-05-06 00:55 39.39245 -105.48869 19554 ft 408 kts 66°
2026-05-06 00:55 39.40439 -105.45579 19347 ft 399 kts 66°
2026-05-06 00:55 39.41371 -105.42278 19212 ft 385 kts 80°
2026-05-06 00:56 39.41710 -105.38917 19042 ft 371 kts 93°
2026-05-06 00:56 39.41732 -105.35603 18716 ft 367 kts 94°
2026-05-06 00:56 39.41749 -105.32313 18393 ft 365 kts 94°
2026-05-06 00:56 39.41766 -105.29047 18076 ft 362 kts 94°
2026-05-06 00:57 39.41784 -105.25801 17751 ft 360 kts 93°
2026-05-06 00:57 39.41801 -105.22583 17425 ft 356 kts 93°
2026-05-06 00:57 39.41817 -105.19387 17067 ft 354 kts 93°
2026-05-06 00:57 39.41832 -105.16216 16769 ft 351 kts 93°